Asheville, NC

7:52 PM EDT on October 13, 2019 (GMT -0400)
Asheville Regional

Weather History for KAVL - May, 2019

Change the Weather History Date:

Friday, May 10, 2019

  Actual Average Record
Temperature  
Mean Temperature 70 °F 62 °F  
Max Temperature 78 °F 74 °F 89 °F (1936)
Min Temperature 62 °F 50 °F 32 °F (1966)
Degree Days  
Heating Degree Days 0 4  
Month to date heating degree days 1 52  
Since 1 July heating degree days 3528 4124  
Cooling Degree Days 5 1  
Month to date cooling degree days 31 9  
Year to date cooling degree days 48 17  
Growing Degree Days 21 (Base 50)    
Moisture  
Dew Point 62 °F    
Average Humidity 77    
Maximum Humidity 93    
Minimum Humidity 60    
Precipitation  
Precipitation 0.54 in 0.11 in 1.95 in (1909)
Month to date precipitation 1.92 1.13  
Year to date precipitation 25.71 15.72  
Snow  
Snow 0.00 in 0.00 in 0.00 in ()
Month to date snowfall 0.0 0.0  
Since 1 July snowfall 11.4 9.9  
Snow Depth 0.00 in    
Sea Level Pressure  
Sea Level Pressure 30.06 in    
Wind  
Wind Speed 6 mph (SSE)    
Max Wind Speed 17 mph    
Max Gust Speed 22 mph    
Visibility 8 miles    
Events Rain    
T = Trace of Precipitation, MM = Missing Value Source: NWS Daily Summary

Daily Weather History Graph

Daily Weather History Graph

Search for Another Location

Airport or City:

Astronomy

May. 10, 2019 Rise Set
Actual Time 6:29 AM EDT 8:23 PM EDT
Civil Twilight 6:02 AM EDT 8:51 PM EDT
Nautical Twilight 5:28 AM EDT 9:25 PM EDT
Astronomical Twilight 4:52 AM EDT 10:01 PM EDT
Moon 11:30 AM EDT (5/10) 1:13 AM EDT (5/10)
Length of Visible Light 14h 49m
Length of Day
13h 53m
Waxing Crescent, 35% of the Moon is Illuminated
May 10
Waxing Crescent
May 11
First Quarter
May 18
Full
May 26
Last Quarter
Jun 3
New

Hourly Weather History & Observations

Time (EDT) Temp. Dew Point Humidity Pressure Visibility Wind Dir Wind Speed Gust Speed Precip Events Conditions
12:54 AM 66.0 °F 59.0 °F 78% 30.05 in 10.0 mi South 4.6 mph - N/A   Mostly Cloudy
1:16 AM 66.0 °F 57.9 °F 75% 30.11 in 10.0 mi SSE 5.8 mph - N/A   Overcast
1:54 AM 66.0 °F 59.0 °F 78% 30.03 in 10.0 mi South 4.6 mph - N/A   Unknown
2:38 AM 64.9 °F 60.1 °F 84% 30.09 in 10.0 mi South 3.5 mph - N/A   Mostly Cloudy
2:54 AM 64.9 °F 60.1 °F 84% 30.03 in 10.0 mi South 3.5 mph - N/A   Overcast
3:54 AM 64.9 °F 60.1 °F 84% 30.02 in 10.0 mi South 8.1 mph - N/A   Overcast
4:20 AM 64.0 °F 59.0 °F 84% 30.09 in 10.0 mi South 8.1 mph - N/A   Mostly Cloudy
4:54 AM 64.0 °F 59.0 °F 84% 30.02 in 10.0 mi South 5.8 mph - N/A   Overcast
5:54 AM 64.0 °F 61.0 °F 90% 30.01 in 10.0 mi SSE 5.8 mph - N/A   Overcast
6:22 AM 64.0 °F 61.0 °F 90% 30.10 in 10.0 mi SSE 6.9 mph - N/A   Mostly Cloudy
6:44 AM 64.0 °F 61.0 °F 90% 30.11 in 10.0 mi South 3.5 mph - N/A   Overcast
6:54 AM 64.0 °F 61.0 °F 90% 30.05 in 10.0 mi Calm Calm - N/A   Overcast
7:00 AM 64.0 °F 61.0 °F 90% 30.11 in 10.0 mi SSE 3.5 mph - N/A   Overcast
7:54 AM 64.9 °F 61.0 °F 87% 30.05 in 10.0 mi South 5.8 mph - N/A   Mostly Cloudy
8:54 AM 66.0 °F 61.0 °F 84% 30.06 in 10.0 mi South 3.5 mph - N/A   Overcast
9:54 AM 66.9 °F 61.0 °F 81% 30.08 in 9.0 mi South 5.8 mph - N/A   Overcast
10:54 AM 70.0 °F 61.0 °F 73% 30.07 in 10.0 mi South 8.1 mph - N/A   Overcast
11:54 AM 73.0 °F 61.0 °F 66% 30.06 in 10.0 mi South 9.2 mph - N/A   Mostly Cloudy
12:54 PM 73.0 °F 62.1 °F 68% 30.04 in 10.0 mi SSE 9.2 mph - N/A   Mostly Cloudy
1:54 PM 73.9 °F 62.1 °F 66% 30.03 in 10.0 mi SE 9.2 mph - N/A   Overcast
2:19 PM 75.9 °F 62.1 °F 62% 30.10 in 10.0 mi SE 9.2 mph 17.3 mph N/A   Mostly Cloudy
2:54 PM 75.9 °F 62.1 °F 62% 30.03 in 10.0 mi SE 8.1 mph - N/A   Overcast
3:15 PM 75.9 °F 62.1 °F 62% 30.11 in 10.0 mi SE 9.2 mph 16.1 mph N/A   Scattered Clouds
3:54 PM 75.9 °F 61.0 °F 60% 30.03 in 10.0 mi SE 9.2 mph - N/A   Partly Cloudy
4:54 PM 75.9 °F 60.1 °F 58% 30.01 in 10.0 mi SE 8.1 mph - N/A   Mostly Cloudy
5:54 PM 73.0 °F 62.1 °F 68% 30.02 in 2.0 mi SSE 10.4 mph - 0.01 in Rain Rain
6:01 PM 70.0 °F 64.0 °F 81% 30.09 in 1.2 mi South 10.4 mph 21.9 mph 0.05 in Rain Heavy Rain
6:20 PM 68.0 °F 64.0 °F 87% 30.09 in 1.8 mi SSE 9.2 mph - 0.27 in Rain Heavy Rain
6:28 PM 69.1 °F 64.9 °F 87% 30.09 in 2.0 mi SSW 8.1 mph - 0.31 in Rain Heavy Rain
6:33 PM 68.0 °F 64.9 °F 90% 30.09 in 1.2 mi SSW 9.2 mph - 0.36 in Rain Heavy Rain
6:41 PM 68.0 °F 64.9 °F 90% 30.10 in 2.0 mi South 5.8 mph - 0.44 in Rain Heavy Rain
6:49 PM 68.0 °F 64.4 °F 88% 30.11 in 6.0 mi Variable 4.6 mph - 0.45 in Rain Light Rain
6:54 PM 68.0 °F 64.0 °F 87% 30.05 in 7.0 mi North 4.6 mph - 0.45 in Rain Light Rain
7:10 PM 68.0 °F 64.9 °F 90% 30.09 in 2.0 mi SSE 4.6 mph - 0.04 in Rain Rain
7:21 PM 68.0 °F 64.9 °F 90% 30.09 in 4.0 mi Calm Calm - 0.06 in Rain Light Rain
7:54 PM 68.0 °F 64.0 °F 87% 30.04 in 10.0 mi Calm Calm - 0.07 in Rain Light Rain
8:54 PM 66.9 °F 64.0 °F 90% 30.07 in 10.0 mi South 6.9 mph - 0.00 in Rain Light Rain
9:54 PM 66.0 °F 63.0 °F 90% 30.08 in 10.0 mi Calm Calm - 0.00 in Rain Light Rain
10:54 PM 64.9 °F 62.1 °F 90% 30.05 in 10.0 mi SSE 3.5 mph - 0.01 in Rain Light Rain
11:19 PM 64.0 °F 62.1 °F 93% 30.11 in 9.0 mi SSW 3.5 mph - 0.00 in Rain Light Rain
11:54 PM 63.0 °F 60.1 °F 90% 30.04 in 10.0 mi Calm Calm - 0.00 in   Partly Cloudy